星链-1186 (STARLINK-1186 )

导读 | 豆包AI

STARLINK-1186是美国SpaceX公司星链(Starlink)低轨互联网星座中的一员,于2020年1月29日发射升空。星链计划旨在搭建全球覆盖的卫星宽带网络,提供高速低时延的互联网服务。该卫星采用平板设计,搭载霍尔推进器,具备自主避撞能力,设计寿命5-7年,退役后会主动离轨再入大气层焚毁。它的入轨进一步完善了星链星座的全球通信覆盖能力。

Basic Information
目录编号:
45099
目录名称:
STARLINK-1186
国际标识:
2020-006BH
轨道中心:
EARTH
卫星名称:
星链-1186
卫星全名:
星链-1186 (STARLINK-1186 )
卫星状态:
已陨落 最后检测时间 2025-02-13
发射日期:
2020-01-29 UTC
国别 :
美国 (US)
星等 :
--
Orbit Information
数据来源 国际轨道数据
星历时间: 2025-02-13T10:53:25+0800
轨道信息已过期394天
半长轴: 6533.262km
偏心率: 0.000346
轨道倾角: 53.020°
近地点辐角 296.671°
升交点赤经 154.551°
平近点角 205.400°
近地点: 152.866km
远地点: 157.388km
周期: 87.590分钟
每日圈数: 16.440222
Detailed Information
固有亮度:
5
最大亮度:
2.5
卫星平台:
Starlink V1.0
覆盖范围:
全球
运营商:
太空探索技术公司
运营商所在国:
美国
制造商(研发单位):
太空探索技术公司
制造商所在国:
美国
使用方式:
暂无
Satellite Introduction
星链(Starlink)计划是由太空探索技术公司(SpaceX)提出的一个巨型低轨卫星互联网星座项目,计划在2019年至2024年间在太空搭建由约1.2万颗卫星组成的“星链”网络,其中1584颗将部署在地球上空550千米处的近地轨道,并从2020年开始工作。该卫星仍在工作。